Wind_Speed
78 75 73 73 74 72 71 70 70 71 71 70 68 64 63 65 67 65 64 63 59 56 54 53 53 54 54 53 50 49 50 50 51 53 54 55 58 59 58 57 55 55 56 56 55 55 56 55 55 55 56 57 58 59 59 59 60 60 60 61 63 64 67 71 72 71 68 68 74 77 77 79 75 68 68 74 75 72 68 67 71 74 76 79 81 82 82
78 76 74 74 75 73 72 72 74 74 74 72 70 67 66 68 69 67 67 66 60 57 56 56 57 58 57 54 51 50 51 51 52 55 57 57 59 58 58 57 57 57 57 57 56 56 57 57 58 57 58 58 59 60 61 62 63 64 64 65 66 68 71 71 69 69 69 71 76 75 72 70 66 64 70 76 75 72 70 71 75 76 77 81 84 85 85
78 76 74 74 74 73 72 73 74 75 74 73 72 70 69 71 71 69 70 68 62 59 59 61 62 62 60 56 54 53 53 53 54 57 60 61 61 59 58 58 57 57 58 57 57 56 56 57 58 59 60 61 61 62 62 64 66 67 68 68 68 69 70 67 67 70 70 69 73 71 63 60 61 65 73 77 76 73 72 74 77 78 81 85 88 88 86
76 75 73 72 70 71 72 73 72 72 74 74 74 74 74 74 71 70 71 68 64 63 65 66 66 64 62 60 58 58 57 56 57 59 62 64 65 63 61 60 59 59 58 58 58 57 56 56 57 58 60 61 62 63 64 65 67 68 68 68 67 68 69 66 65 67 66 65 65 61 56 58 63 69 74 76 74 71 72 76 79 83 87 89 89 88 86
76 74 73 70 69 70 73 72 70 71 75 76 75 75 76 75 70 68 70 68 65 68 70 68 66 66 65 64 62 61 60 59 60 63 65 67 68 67 65 64 63 62 61 60 59 59 58 58 58 59 60 61 63 63 63 64 65 66 67 67 67 68 69 66 63 61 60 59 58 56 59 64 68 72 75 73 70 70 73 79 84 88 89 88 88 87 86
76 75 73 71 70 71 72 71 69 71 74 74 73 74 75 72 68 67 68 66 66 69 71 69 68 69 69 67 65 64 64 64 65 67 69 70 70 69 68 67 67 66 65 64 62 61 61 62 61 62 63 64 64 63 63 63 63 65 66 67 67 67 65 63 60 54 51 52 54 58 63 68 71 75 75 71 69 73 78 84 88 90 88 87 87 87 88
76 75 73 73 72 71 71 71 70 71 71 70 71 74 74 70 67 66 66 65 67 69 71 71 71 71 71 69 68 68 68 68 69 71 72 73 72 71 70 69 69 68 68 67 66 65 65 64 65 66 67 67 65 63 63 64 65 67 67 65 64 61 58 54 49 44 44 51 60 65 68 72 75 76 74 72 73 77 82 88 90 89 87 86 87 88 89
77 75 74 74 73 71 71 72 72 72 71 69 70 73 74 71 68 67 66 66 68 70 72 72 72 71 71 70 70 70 71 72 73 74 75 74 73 72 72 72 72 72 71 71 70 68 67 67 68 68 67 67 65 65 66 68 69 69 65 62 59 55 49 44 41 42 48 57 65 70 72 75 76 76 75 76 78 82 87 90 90 88 87 86 88 89 89
79 77 76 76 74 72 72 73 72 72 70 69 70 72 74 73 71 70 69 68 69 71 72 72 70 70 70 71 71 71 71 74 76 76 76 75 74 75 76 76 75 74 73 73 72 71 71 72 72 70 68 66 66 68 70 70 70 68 65 61 56 47 40 39 42 48 57 64 70 73 75 77 78 78 78 80 83 87 90 90 89 87 87 88 90 91 91
80 77 77 76 75 74 74 75 74 73 72 72 73 75 76 76 75 73 72 71 71 71 71 70 69 69 70 71 71 71 72 74 75 76 77 76 77 78 78 77 75 74 74 74 73 73 73 73 73 71 70 69 69 71 71 68 67 65 60 55 51 43 38 41 45 52 62 69 73 74 75 77 78 79 80 84 88 91 90 89 88 87 89 91 93 94 95
80 79 78 77 77 77 77 78 79 78 78 77 77 78 80 80 78 76 75 73 73 72 71 70 70 70 71 72 71 71 72 73 74 76 77 78 78 77 77 76 75 74 74 74 74 74 72 70 68 68 68 71 72 71 70 67 64 61 53 48 47 45 45 47 51 58 65 69 70 72 74 77 78 80 83 88 91 90 89 88 88 89 92 95 96 97 98
81 81 82 81 80 80 80 80 81 81 81 80 78 80 82 81 79 79 79 77 74 73 72 72 72 72 73 73 72 72 72 73 74 76 77 77 77 76 76 76 76 75 75 75 75 74 71 70 70 70 72 74 74 72 70 66 63 60 54 51 53 55 56 57 59 63 67 70 73 76 78 80 82 85 88 90 91 89 87 88 89 92 94 97 98 99 99
84 84 85 84 83 82 81 80 81 81 81 81 81 82 83 81 80 81 81 80 78 75 74 75 74 75 75 74 74 73 74 74 74 75 76 76 76 76 77 77 75 74 73 72 72 71 71 72 73 73 73 74 73 71 68 66 64 60 55 55 59 60 58 59 63 67 72 77 81 82 82 83 86 89 90 90 89 88 88 89 92 94 96 98 100 100 100
86 85 85 84 83 82 80 79 80 80 81 82 84 84 83 82 82 82 81 81 80 79 78 78 77 76 77 76 75 75 76 76 76 76 77 77 76 76 76 76 75 73 71 70 70 71 72 73 74 73 72 71 69 67 64 63 63 61 58 59 63 63 61 63 68 72 76 79 80 80 82 87 90 91 90 89 89 88 89 90 92 95 98 99 99 99 101
83 83 83 82 82 81 80 79 80 81 82 84 85 85 84 82 81 81 80 80 81 82 82 81 80 79 78 77 76 77 77 77 76 75 76 76 75 76 76 76 75 73 71 71 71 71 72 73 73 73 71 68 66 65 63 62 62 62 63 66 68 68 67 68 70 71 72 74 77 81 87 92 94 93 92 90 89 88 88 90 94 97 98 97 97 101 104
81 80 80 80 81 80 80 80 82 82 83 85 85 85 85 84 83 83 82 81 82 83 84 83 81 81 81 79 78 77 77 76 76 75 75 75 75 75 75 75 75 73 71 70 70 70 70 71 71 70 68 67 65 64 64 64 64 64 66 69 71 71 69 68 71 74 75 77 81 86 91 93 93 93 93 91 88 88 90 93 95 96 96 97 100 104 107
78 78 78 78 79 78 76 77 80 81 81 82 83 83 84 84 84 83 83 82 82 83 85 85 83 82 81 80 79 77 77 76 74 73 73 73 72 72 72 72 71 71 71 71 70 70 70 70 69 69 67 65 63 61 61 62 63 65 67 68 70 71 68 68 73 79 82 84 86 88 89 90 91 93 94 91 90 91 93 94 95 95 97 101 105 107 107
76 76 75 74 72 70 67 68 74 78 78 78 79 80 82 83 83 84 83 81 80 78 78 81 83 81 80 80 78 74 70 67 66 67 70 70 70 70 71 70 70 71 72 72 72 72 72 72 71 68 65 60 58 58 57 54 55 59 62 62 65 66 66 69 74 78 82 84 86 87 88 89 91 94 95 94 93 93 93 94 96 99 101 104 106 106 106
74 75 74 71 67 64 60 62 69 76 78 77 76 77 79 80 81 82 78 73 72 72 70 73 79 79 78 77 75 70 65 62 62 65 68 68 69 71 73 74 74 74 74 74 74 74 74 71 68 64 61 57 56 57 55 49 47 49 52 56 61 64 66 70 73 76 80 83 86 87 88 88 91 95 97 95 92 91 93 96 99 101 102 103 103 104 107
74 75 74 71 68 65 62 62 65 71 75 77 76 75 77 78 78 77 74 69 67 67 66 67 71 73 72 72 71 68 66 64 63 64 66 68 70 72 73 73 73 73 73 73 73 73 70 68 65 62 59 56 56 57 56 53 53 56 60 63 67 70 72 75 77 79 81 84 85 86 85 86 89 93 94 93 91 93 96 99 100 100 100 101 103 106 108
72 73 72 69 66 65 65 66 69 71 74 78 78 77 78 79 78 77 76 73 69 66 65 66 67 68 69 69 67 65 65 65 66 67 68 69 69 69 69 69 69 70 70 71 71 71 69 66 63 61 58 56 57 58 58 58 61 65 68 68 68 69 72 74 75 76 77 76 76 77 79 82 86 88 90 92 95 98 100 99 98 98 100 102 105 108 109
69 70 69 67 64 64 64 66 70 73 76 80 80 79 79 79 78 78 78 76 73 70 68 67 65 63 61 60 59 59 60 62 65 67 68 68 67 67 67 68 69 70 71 72 72 70 67 64 62 60 58 56 57 58 60 62 64 65 66 66 67 67 67 67 68 70 71 71 72 74 78 82 84 85 89 95 99 100 100 99 98 100 102 105 108 110 111
61 61 62 62 62 64 65 66 69 73 77 80 80 80 80 78 77 77 76 75 72 69 68 66 62 59 58 57 57 57 58 60 64 67 70 72 71 70 70 71 73 74 74 74 72 70 68 66 64 62 60 59 58 59 62 64 65 64 66 69 70 68 66 65 65 67 70 74 77 78 81 84 84 86 92 98 100 100 99 99 101 103 106 108 111 112 111
55 55 58 61 63 66 68 70 74 77 80 81 80 80 79 77 74 73 73 72 70 70 70 69 67 64 63 62 62 62 63 64 66 67 69 71 72 73 74 76 77 77 75 74 73 72 71 70 68 66 65 64 63 63 66 69 70 71 73 75 76 75 76 75 74 74 76 80 83 85 86 87 88 92 98 101 101 100 101 102 104 107 109 112 113 111 105
61 62 65 66 67 70 73 76 80 82 82 82 80 78 77 75 73 73 73 73 71 71 71 71 70 68 68 68 68 69 69 69 70 71 71 73 74 75 76 77 78 78 76 75 75 75 74 74 73 73 72 71 70 70 72 75 75 74 74 76 79 81 84 85 84 84 84 86 88 89 90 92 95 99 101 101 101 102 104 105 108 110 113 113 110 103 98
70 73 74 72 71 74 78 82 83 84 83 81 79 77 74 72 71 72 73 72 71 69 69 70 71 71 72 72 73 74 75 75 75 75 76 77 79 79 79 78 78 78 77 77 77 78 78 79 79 79 79 79 78 78 78 78 76 74 75 78 81 83 85 86 87 88 89 90 91 93 95 97 100 101 101 102 104 106 107 110 112 113 112 107 101 97 97
73 77 78 77 75 77 80 83 85 84 83 81 78 75 73 71 70 70 70 70 69 68 69 69 70 71 73 74 75 76 76 77 77 77 78 79 80 80 79 78 78 78 79 80 81 83 84 85 86 86 87 87 87 86 85 84 82 80 79 80 82 83 85 86 87 88 90 92 95 97 98 99 100 100 102 105 108 110 112 113 112 109 103 99 97 98 99
71 74 77 78 79 81 83 86 86 84 82 79 76 73 72 71 69 69 69 69 69 68 68 69 69 70 71 72 73 73 74 75 76 76 77 78 79 79 79 79 80 81 82 84 85 87 88 90 91 93 93 94 93 91 88 85 81 78 76 77 79 81 83 85 87 88 91 93 95 98 99 101 102 104 107 109 110 110 109 106 102 99 97 98 100 100 100
70 74 77 79 81 83 84 85 84 80 77 75 72 71 69 68 66 66 67 67 67 67 68 69 69 69 69 70 71 72 73 74 75 76 77 78 80 81 81 82 83 84 85 87 89 91 93 95 96 96 95 93 90 86 81 78 76 74 74 75 77 79 81 83 85 88 91 95 98 100 103 104 104 105 104 103 102 100 98 97 97 97 99 101 102 101 100
73 77 79 80 80 79 79 79 78 76 74 74 72 71 69 66 64 64 65 65 65 65 66 67 68 69 70 71 73 73 74 75 77 78 79 80 81 82 83 84 85 87 89 91 93 94 96 96 96 94 92 88 84 81 79 78 78 78 78 78 80 82 84 87 90 92 95 97 98 99 99 99 97 96 96 95 95 95 95 97 99 100 102 103 102 100 99
75 77 77 77 76 75 75 76 75 75 75 75 75 73 71 67 65 66 67 66 66 66 66 67 68 69 71 73 74 75 76 77 79 80 81 82 84 86 88 89 90 91 92 93 94 95 96 95 92 90 88 86 84 83 81 81 82 82 83 85 87 89 91 92 92 92 92 92 92 92 94 94 95 95 96 96 97 98 99 100 101 102 103 103 101 99 96
69 70 71 72 73 74 74 75 76 76 77 78 78 77 76 72 70 69 69 69 69 69 70 70 71 72 73 75 77 78 79 80 82 84 85 86 87 89 90 91 92 93 95 95 95 94 92 89 87 86 87 86 84 83 84 85 87 87 88 88 89 89 89 88 88 88 89 90 92 93 96 98 99 100 100 100 100 101 102 102 103 103 104 102 99 95 92
63 64 66 68 71 72 73 74 75 76 76 77 78 78 78 78 77 75 74 74 74 75 75 76 77 77 78 80 82 83 84 85 86 87 88 89 90 91 92 93 94 94 93 92 90 88 86 85 85 85 85 84 83 83 84 86 87 86 86 86 86 86 86 87 89 90 91 93 94 96 98 100 101 102 102 103 103 103 103 103 102 102 101 99 95 90 87
58 59 60 63 65 67 69 70 71 71 72 72 73 73 73 74 75 76 76 76 77 78 79 79 80 81 81 82 84 86 87 87 88 90 91 92 92 91 90 89 88 87 86 85 84 83 82 82 81 81 80 79 79 80 81 82 84 84 84 85 86 87 88 90 92 94 95 96 97 98 99 100 100 101 101 102 101 100 99 97 96 95 93 91 88 84 81
50 51 52 54 57 59 62 64 66 68 69 70 71 72 72 72 73 74 75 76 78 79 79 80 81 82 83 84 85 87 89 90 91 91 90 89 87 85 83 82 82 82 81 81 80 79 78 78 78 77 77 77 79 80 81 83 84 85 86 87 88 90 91 93 96 98 99 100 100 100 99 98 98 98 97 95 94 92 91 89 87 87 86 84 81 77 72
43 44 45 47 49 52 54 57 59 62 65 67 69 71 73 75 77 78 79 80 81 82 83 84 85 86 87 88 88 89 89 88 87 85 83 81 79 77 76 77 78 78 78 78 78 78 77 77 78 79 79 81 82 83 84 85 86 88 89 91 93 94 96 97 99 100 100 101 101 100 98 97 96 94 92 91 90 89 86 84 82 80 78 75 71 67 64
41 42 43 43 45 46 48 50 52 54 57 60 62 65 68 71 74 76 78 80 81 82 83 84 83 83 82 81 80 79 78 77 75 75 74 73 71 70 71 74 77 79 81 82 81 81 80 80 80 81 83 85 86 87 88 88 89 91 93 95 96 98 99 101 102 102 100 98 96 95 93 92 91 90 90 89 87 84 80 76 73 71 68 66 63 61 60
42 42 42 42 43 43 44 46 47 49 51 53 54 56 59 61 63 65 67 68 69 70 71 72 71 70 68 68 67 67 67 67 68 68 69 69 69 70 72 76 80 84 87 88 87 85 84 84 84 85 86 88 89 91 92 92 93 94 96 97 99 101 102 103 102 100 97 93 90 88 87 86 85 84 83 80 77 73 69 66 64 62 61 60 59 58 57
44 43 43 44 44 44 44 45 46 47 48 49 51 52 53 55 56 58 59 59 60 61 62 63 63 62 62 63 64 65 66 67 69 69 70 71 73 76 78 81 84 88 91 92 92 90 89 89 88 89 89 90 91 93 94 94 95 95 97 98 99 99 99 97 94 90 86 83 81 79 78 77 75 73 71 68 66 64 61 60 58 57 57 56 56 55 54
45 45 45 45 45 46 47 48 48 49 50 51 52 53 54 55 56 57 58 59 60 61 62 63 63 63 64 65 67 69 70 72 73 73 73 74 78 82 86 88 89 91 92 92 93 93 93 92 91 91 91 91 92 93 94 93 93 93 94 94 93 92 89 86 82 79 76 74 72 71 69 68 67 65 63 61 59 58 57 56 56 55 55 54 53 52 51
48 48 49 49 49 49 50 51 52 53 53 54 55 57 58 59 59 60 62 63 64 65 65 66 67 68 68 70 71 73 75 77 78 78 78 78 81 87 92 94 94 95 95 95 94 95 95 94 93 92 92 92 93 92 92 91 90 90 89 88 85 83 80 77 76 74 72 70 69 67 65 63 61 59 58 57 56 55 55 54 54 53 52 50 49 49 48
52 52 52 52 52 53 53 54 55 56 57 59 60 61 61 62 63 64 66 67 68 69 69 70 71 72 73 74 76 78 80 82 83 84 84 84 85 89 93 95 96 97 98 97 96 95 95 94 93 92 92 92 91 90 89 89 88 86 84 81 79 77 76 75 74 73 71 70 68 65 62 59 58 57 56 55 54 53 52 51 51 49 48 46 45 45 45
55 55 55 54 55 55 56 57 58 60 61 63 64 65 65 66 67 68 69 71 72 73 73 74 75 76 77 79 80 82 84 86 87 88 88 88 87 88 89 91 92 93 94 93 93 92 91 91 90 89 89 88 88 87 86 85 83 80 78 76 75 75 75 73 72 70 68 66 64 62 60 58 56 54 52 51 49 48 48 47 47 46 43 41 40 40 40
56 56 56 57 57 58 59 60 61 63 65 66 67 68 69 70 71 72 73 75 76 77 77 78 78 79 80 81 82 83 84 84 84 84 83 82 81 81 82 83 84 85 86 86 87 86 86 86 86 85 84 84 83 82 79 77 75 74 74 74 73 73 71 69 67 65 63 61 60 60 59 57 53 50 47 46 45 44 44 44 43 42 40 37 36 36 36
58 59 59 60 60 61 62 64 65 67 68 69 70 71 72 74 75 75 76 77 79 80 81 82 82 82 81 81 79 78 76 74 73 72 71 70 71 72 73 73 74 76 77 79 79 79 79 79 78 77 76 74 73 71 70 70 70 71 72 71 70 69 67 65 63 61 58 56 55 55 54 52 49 46 42 40 40 40 41 40 40 39 37 34 33 34 34
61 61 62 63 64 64 65 67 68 69 70 71 72 74 75 77 78 79 79 80 81 83 84 84 83 81 78 76 72 69 65 62 60 59 58 59 60 61 62 63 64 65 67 68 69 69 68 67 66 65 63 62 62 63 65 67 68 69 68 67 65 63 61 58 56 53 50 49 49 50 50 48 45 42 38 36 36 37 38 39 39 38 36 34 32 33 33
64 65 65 66 66 67 68 69 70 71 72 73 74 76 77 79 80 81 82 83 83 84 84 82 80 76 72 67 63 58 54 51 49 49 49 51 52 52 53 54 54 55 56 56 56 56 55 55 54 55 55 57 58 61 63 64 64 64 62 61 59 56 53 50 47 44 42 42 44 47 48 47 44 40 36 34 33 35 36 38 39 39 38 36 34 33 33
67 68 68 68 69 69 70 71 72 73 74 75 76 78 79 80 82 83 83 84 83 81 79 76 73 69 63 56 50 46 43 41 40 40 41 41 42 43 44 44 44 45 45 46 47 47 48 48 50 52 54 56 58 59 60 59 58 57 55 53 52 51 49 46 43 40 38 38 39 42 44 46 45 42 38 35 33 33 35 37 38 39 39 38 37 35 34
68 68 69 69 70 71 72 73 74 75 76 77 78 79 80 81 81 81 81 80 77 74 71 67 63 59 53 47 43 40 38 37 37 36 36 36 36 37 38 39 40 41 42 44 45 46 47 48 50 52 54 54 55 54 54 53 52 50 49 48 48 48 47 46 43 40 38 37 37 38 41 43 44 44 41 38 35 34 35 36 37 38 38 38 38 37 36
68 69 70 71 72 73 74 75 75 76 77 78 78 78 79 78 78 76 74 72 68 64 60 57 53 49 46 43 41 40 39 40 40 40 40 40 40 41 41 42 43 44 45 47 48 49 49 50 50 51 51 50 49 49 48 48 48 48 47 47 47 48 48 48 47 44 41 39 39 39 40 41 43 43 43 41 39 38 38 37 38 38 39 39 39 38 37
70 71 72 72 73 74 75 76 77 77 77 77 76 75 74 73 70 68 65 62 59 56 53 50 47 45 43 42 41 41 41 42 43 44 45 45 46 46 46 46 46 47 48 49 49 49 49 48 47 47 46 46 46 46 46 47 47 47 47 47 48 48 49 49 50 49 47 44 42 41 41 42 42 43 43 42 42 41 40 40 40 40 40 40 40 40 39
71 72 72 73 73 74 74 75 74 74 73 72 71 69 67 64 60 57 55 54 52 51 48 46 45 44 44 43 43 43 43 43 43 44 45 46 47 47 47 47 47 47 48 48 47 47 46 45 45 46 46 47 47 47 47 47 47 48 48 48 48 48 48 49 49 50 49 48 47 45 44 44 44 44 44 44 43 43 43 42 41 41 41 41 41 41 41
Wind_Direction
245 244 244 245 246 247 249 251 253 253 254 256 257 257 258 258 259 261 261 261 261 263 265 266 266 266 265 266 269 271 272 271 271 271 271 272 273 275 279 281 283 284 284 285 287 288 289 290 290 290 291 292 294 295 296 296 296 298 299 298 298 300 301 302 302 304 304 300 299 301 303 303 301 299 305 311 314 315 313 311 312 313 314 317 319 319 318
244 244 244 245 246 247 247 249 251 253 254 256 258 258 258 259 260 261 262 263 263 265 266 267 267 266 266 267 270 271 271 272 272 273 273 272 272 275 279 281 283 284 284 286 288 289 289 291 292 292 291 291 292 292 293 294 295 296 297 298 299 301 302 303 304 305 304 301 300 302 302 299 296 298 306 312 314 313 310 309 311 311 312 315 317 317 317
244 244 244 244 246 247 248 249 250 253 255 257 258 259 259 259 260 262 263 265 267 267 267 267 266 266 267 270 271 270 270 272 273 274 275 275 275 276 277 279 280 282 283 286 287 288 289 290 291 293 293 292 292 292 293 294 295 296 297 298 301 302 303 304 304 303 302 299 298 298 296 294 295 299 306 312 313 310 308 309 310 311 312 313 314 316 315
243 244 245 245 246 248 249 249 250 253 255 255 256 257 257 257 258 260 263 265 267 267 266 265 267 269 271 271 271 271 272 273 273 274 275 276 277 278 278 279 280 281 283 284 286 287 289 289 290 291 291 292 292 293 294 295 295 296 297 299 301 301 302 303 302 299 297 293 290 289 289 292 295 298 305 311 311 308 309 310 311 311 311 311 312 314 314
243 244 245 245 246 247 248 249 250 251 253 254 255 256 257 258 260 261 263 265 266 266 266 268 270 271 270 270 270 272 273 273 273 273 273 274 277 278 279 280 281 282 283 284 285 287 288 289 289 290 291 292 293 294 295 295 295 297 298 299 300 300 301 302 301 296 290 283 279 280 286 291 293 297 305 309 308 307 308 309 310 310 310 310 312 314 313
243 244 245 246 245 247 249 250 250 252 254 256 257 258 258 260 261 262 263 264 264 264 266 267 267 268 268 270 271 271 271 270 271 272 273 274 276 278 279 281 282 283 284 284 285 286 287 288 288 289 290 291 292 292 293 292 294 296 297 298 299 300 301 302 301 296 286 278 278 281 285 287 290 296 303 305 304 306 307 308 309 309 309 311 312 313 313
244 245 246 247 247 248 251 252 252 253 254 257 259 260 260 260 259 260 261 262 262 262 263 264 265 266 268 269 270 270 270 270 270 271 272 274 276 278 279 280 280 281 282 283 284 285 286 287 288 289 289 289 289 290 291 291 293 295 296 296 297 297 300 303 300 291 282 280 282 282 282 284 289 295 299 301 302 305 306 307 308 308 309 311 312 312 312
243 245 246 248 249 250 251 253 254 254 255 256 258 261 263 262 261 261 261 261 261 262 263 264 265 267 269 270 270 270 269 269 269 270 271 273 275 276 277 277 277 279 281 282 284 285 285 286 288 290 289 288 287 288 292 293 293 293 294 295 295 296 299 303 296 283 277 279 281 280 281 284 289 294 296 298 301 304 304 305 306 307 308 310 310 311 313
242 244 246 248 249 251 252 254 255 257 258 259 259 260 262 263 262 262 261 262 262 263 265 266 268 270 271 272 272 271 270 269 270 270 271 272 273 274 274 275 277 279 281 283 284 285 286 287 288 288 288 288 288 289 293 294 293 293 293 294 293 290 285 283 280 275 274 276 277 278 280 284 289 292 294 297 300 302 303 304 305 306 307 309 310 312 312
243 245 247 249 250 251 252 254 255 256 257 258 258 259 260 261 262 262 263 264 264 265 267 270 271 271 272 272 272 272 271 271 271 271 271 271 271 272 274 276 278 280 281 282 283 285 286 287 287 286 286 288 290 292 294 295 293 293 294 293 289 280 266 258 261 267 272 274 275 277 280 285 288 290 292 296 299 300 301 302 304 305 307 308 310 311 311
243 245 246 248 250 251 251 253 254 254 255 256 258 260 261 261 263 264 264 265 266 268 269 270 271 271 272 272 272 272 272 272 272 272 272 272 273 274 275 277 278 279 280 281 282 283 284 285 286 285 286 289 291 293 295 294 292 290 287 281 276 272 266 260 260 266 270 271 273 277 281 284 286 289 292 295 297 299 300 302 304 305 306 308 309 310 311
242 243 244 245 247 248 250 252 254 255 256 257 259 260 261 262 264 265 266 266 266 268 269 270 271 271 271 272 273 273 273 272 272 273 273 274 276 277 277 277 278 279 280 281 282 282 282 283 284 285 287 290 292 294 295 293 290 286 280 271 266 268 270 270 269 270 270 269 272 277 281 283 285 289 292 295 297 298 301 302 304 305 306 307 308 309 310
240 242 243 244 246 247 249 252 254 256 258 258 259 259 261 263 264 265 266 267 268 268 268 269 270 271 271 272 272 272 273 273 273 274 275 277 277 278 278 278 279 280 280 282 282 282 282 282 283 284 286 289 292 294 294 291 287 284 278 272 269 270 271 270 269 270 270 270 273 277 280 283 287 291 293 295 296 298 300 301 303 305 306 307 308 308 309
241 243 244 246 247 248 250 251 253 255 257 257 258 259 261 262 264 265 266 267 268 268 267 268 269 270 271 272 272 273 274 275 276 276 277 278 278 278 279 280 281 281 281 281 281 282 283 284 284 285 288 291 293 294 292 289 285 282 277 274 274 273 272 272 273 273 273 273 274 276 279 284 288 291 292 293 295 297 299 301 302 303 304 306 307 307 308
242 244 246 247 248 249 250 251 252 253 254 256 257 259 260 261 262 263 264 266 267 268 268 268 269 269 270 271 273 274 275 276 277 277 277 278 278 279 280 281 282 282 281 281 281 282 284 285 286 288 290 293 294 294 291 288 285 281 277 276 276 275 275 277 278 275 273 274 275 277 281 285 288 290 291 292 294 296 298 299 301 302 303 304 305 306 307
242 244 245 247 249 249 249 250 251 253 254 256 257 258 258 259 259 261 262 264 266 267 268 268 269 269 270 271 272 274 275 275 276 276 277 278 280 281 281 281 282 282 282 282 283 283 284 285 287 289 291 293 294 292 290 288 286 283 281 279 279 278 277 276 275 274 275 278 279 280 284 286 288 289 290 291 292 294 296 297 299 301 301 302 303 304 306
243 244 245 246 248 250 251 252 253 253 254 256 257 258 258 259 259 260 261 263 265 267 268 269 269 270 271 272 273 274 275 274 275 276 277 279 279 279 280 280 281 282 282 283 284 284 284 284 286 288 290 291 291 289 287 287 285 284 283 281 279 278 277 275 274 276 279 281 281 283 285 287 288 288 288 288 290 291 293 296 298 299 299 300 302 304 305
241 242 243 244 245 247 249 250 253 254 254 255 257 259 261 261 262 262 263 264 266 267 268 269 270 271 272 273 274 275 274 272 273 275 277 277 277 277 278 279 279 280 281 282 282 282 283 284 286 287 288 288 286 284 283 285 286 287 285 282 280 280 280 279 278 279 280 282 282 283 284 285 286 286 285 286 287 289 291 294 297 298 299 301 303 304 306
239 240 241 241 240 240 242 247 253 255 255 255 256 258 260 261 262 263 264 264 266 267 267 268 271 272 272 273 275 275 273 272 273 276 276 277 278 278 279 279 279 279 279 279 280 281 282 284 285 285 284 283 281 280 280 278 278 282 283 281 282 282 281 279 278 279 280 281 282 282 283 284 285 285 286 287 289 290 293 296 298 299 301 302 303 305 307
239 239 239 239 238 236 236 240 248 253 256 256 255 256 257 258 259 261 262 262 263 264 265 266 269 271 272 274 276 275 274 273 273 274 275 276 278 279 280 280 280 280 279 278 278 279 281 282 282 281 280 279 278 278 277 273 271 274 278 280 281 281 278 277 276 276 277 280 282 283 285 286 287 288 289 291 293 295 297 299 300 301 302 302 304 305 307
239 239 238 238 237 236 235 235 240 246 251 254 255 256 257 258 258 259 260 259 258 258 260 263 266 269 271 273 273 272 271 270 270 271 272 274 276 277 277 278 279 279 279 279 279 280 281 280 279 278 277 277 275 274 274 274 275 278 280 281 280 279 278 279 279 278 279 282 285 288 288 288 288 289 291 293 295 298 300 300 300 300 301 302 304 305 306
239 239 238 237 237 237 237 237 239 242 247 251 254 256 258 259 259 259 259 259 259 259 260 262 264 266 267 266 266 266 267 268 269 270 270 271 272 273 274 275 276 277 278 279 281 281 281 280 278 276 274 273 273 273 275 277 278 279 280 279 278 278 280 282 282 281 281 281 282 283 284 285 287 289 290 293 296 298 298 298 298 299 300 302 303 304 305
237 238 238 236 237 239 240 241 243 244 247 250 253 255 257 259 259 259 259 259 259 259 258 257 257 257 257 258 259 260 262 264 267 270 272 273 273 272 272 272 273 275 278 280 281 281 281 280 277 275 273 273 274 275 276 276 277 278 278 278 276 275 276 277 278 278 278 278 278 278 279 281 284 286 289 292 294 295 295 296 297 298 300 301 302 302 303
225 229 233 233 234 237 239 240 242 244 247 250 252 254 256 258 259 258 257 256 256 255 255 255 254 252 252 254 256 257 258 260 263 266 269 272 273 273 273 273 275 277 280 280 280 280 280 279 278 277 276 276 275 274 274 275 276 278 279 277 276 274 273 272 271 272 274 276 276 277 277 279 282 285 288 290 292 293 294 295 296 297 298 299 300 301 301
216 221 227 229 231 234 235 236 239 242 245 248 250 253 256 258 258 257 256 256 256 256 256 256 255 253 253 254 255 255 256 258 259 261 262 264 266 268 270 272 275 278 279 279 279 279 279 278 278 279 279 277 276 275 276 277 279 279 278 276 275 273 272 271 270 270 271 273 274 275 277 279 282 285 287 289 290 291 293 294 295 296 297 298 298 298 299
217 219 223 225 227 232 235 236 238 241 244 247 250 253 256 256 255 255 256 258 258 257 257 256 255 255 255 255 256 257 257 257 258 259 260 262 264 266 268 271 273 275 276 276 276 276 276 277 278 279 280 280 280 280 279 279 278 277 276 275 273 272 272 272 271 271 270 271 272 274 276 279 282 284 285 287 289 290 292 292 293 294 295 296 296 296 298
223 225 228 228 227 231 235 238 239 241 244 247 250 252 252 251 252 253 254 256 256 256 255 255 255 255 256 256 257 257 258 258 259 260 261 263 265 267 269 271 272 272 272 273 273 274 275 277 278 280 281 282 282 282 282 281 280 278 276 274 272 272 271 272 271 271 271 271 273 274 277 279 281 282 284 286 287 288 289 290 291 292 293 294 294 296 299
230 231 234 234 232 232 235 239 241 244 246 248 250 250 249 250 250 250 250 252 253 254 254 254 254 255 256 257 257 258 258 259 260 261 262 264 266 267 268 269 269 270 271 271 272 273 275 276 278 280 281 283 284 284 284 283 282 280 277 273 272 271 271 271 271 272 272 273 274 276 277 279 280 281 283 284 285 287 288 289 290 291 292 293 295 297 300
234 234 235 236 236 236 237 240 243 246 247 248 248 248 248 249 249 249 249 250 251 252 254 254 254 254 254 255 256 257 258 259 260 261 262 263 265 265 266 267 267 268 269 271 272 274 275 277 279 281 283 284 285 285 284 283 281 278 276 273 272 272 271 271 272 272 273 274 275 277 278 279 281 282 283 285 286 288 289 290 291 292 293 294 296 298 300
234 235 235 236 237 239 240 242 244 245 246 246 246 247 247 247 246 246 247 248 249 250 252 253 254 254 254 254 255 256 256 258 259 260 262 263 264 266 266 267 268 269 271 272 274 275 277 279 281 283 283 284 283 283 282 281 280 278 276 275 274 274 274 275 275 276 277 278 280 281 282 282 284 285 287 287 288 289 290 291 292 293 294 295 297 298 300
234 235 237 238 239 241 242 243 244 245 245 245 245 246 246 246 244 243 245 246 246 248 249 251 253 253 254 255 255 256 257 258 259 260 261 263 264 266 268 270 271 272 273 274 276 277 279 281 282 283 283 282 282 282 282 281 280 279 279 278 278 279 279 280 281 282 283 284 286 286 286 287 288 289 289 290 290 291 292 293 293 294 295 296 297 298 299
235 237 239 240 242 242 243 243 244 244 245 246 246 246 246 245 243 242 242 243 245 246 248 250 251 252 253 254 256 257 257 258 259 260 262 264 265 267 269 271 272 274 275 276 277 279 280 281 281 281 281 282 282 282 282 281 281 281 281 282 282 283 283 284 285 287 287 288 289 289 289 289 290 290 291 291 292 293 293 293 294 294 295 296 297 298 298
237 238 239 240 241 242 242 243 244 244 245 246 246 247 246 245 243 243 243 244 246 247 249 250 251 251 253 254 256 258 259 260 261 262 264 265 267 269 270 272 274 275 276 277 278 279 279 280 280 280 280 281 281 282 282 282 282 283 283 284 284 285 287 288 289 290 290 290 290 289 289 289 290 290 291 292 292 293 293 293 294 294 294 295 296 297 298
241 241 241 241 242 242 243 244 244 245 245 245 245 245 244 244 244 244 245 246 248 249 250 251 252 254 255 256 257 259 261 262 263 265 267 269 270 272 273 274 275 276 276 277 277 277 277 277 278 278 280 281 282 282 283 283 284 284 285 286 287 288 289 291 291 292 291 291 290 290 290 290 291 291 291 292 292 293 293 293 293 293 294 294 296 297 298
246 247 247 247 247 247 246 246 245 245 245 245 244 243 243 243 244 245 245 246 247 249 250 251 253 255 256 258 259 261 263 265 267 268 270 272 273 274 274 275 276 276 276 276 276 276 276 277 278 280 282 283 283 284 285 285 286 287 288 288 289 290 290 291 292 292 292 293 293 293 292 292 292 292 292 292 293 294 294 293 293 294 294 295 295 296 296
248 248 248 249 249 249 249 249 248 248 247 247 246 245 245 245 246 246 247 248 249 250 252 253 255 257 259 261 262 264 266 268 269 271 272 273 273 274 275 276 275 275 275 275 275 277 278 280 282 284 285 286 286 286 287 287 288 289 289 290 290 290 290 291 292 293 293 293 293 293 293 293 293 293 293 293 293 293 293 293 293 293 293 294 294 295 294
248 248 248 249 249 249 250 250 250 250 250 250 250 250 249 249 249 250 251 252 253 255 256 258 259 261 262 264 265 267 268 269 270 271 272 273 274 275 276 276 276 276 276 276 276 278 280 281 283 284 285 286 286 286 287 287 288 288 288 289 289 290 291 292 293 293 293 293 292 292 292 292 292 292 292 292 292 292 292 292 292 293 293 293 294 293 293
247 248 249 250 251 251 252 252 253 253 253 253 254 254 254 255 255 256 257 258 259 260 261 263 264 265 266 267 268 269 270 271 271 272 273 274 275 275 276 276 277 278 278 278 278 279 280 282 283 283 284 285 285 286 286 286 286 287 287 288 289 290 291 292 292 292 292 292 291 291 291 290 290 290 290 290 291 291 292 293 293 293 293 293 292 292 292
249 249 251 252 253 254 254 255 255 255 256 256 257 258 258 259 260 261 262 263 263 264 266 267 268 269 270 271 271 272 273 273 273 274 275 276 276 276 275 275 275 276 277 278 280 281 282 282 283 284 285 285 286 286 286 286 286 286 286 287 288 289 291 291 292 292 292 291 291 291 291 290 290 290 290 291 291 292 293 293 293 292 292 292 291 291 291
254 255 255 256 257 258 259 259 260 260 260 260 261 262 262 263 264 265 266 267 268 268 270 271 272 273 274 274 275 275 276 276 276 276 277 278 279 278 277 276 275 276 277 278 280 281 282 283 284 285 286 286 286 286 286 285 285 286 287 288 289 290 291 292 292 292 293 293 292 292 292 292 292 292 292 292 293 293 293 293 292 292 292 291 291 291 290
255 257 258 259 259 260 261 262 263 264 264 264 265 265 266 267 268 269 270 271 272 273 273 274 276 276 277 277 278 278 278 278 278 278 278 278 278 278 278 279 279 280 280 281 282 283 284 284 285 286 286 286 286 286 286 287 288 289 290 291 292 293 293 294 295 295 295 295 295 295 295 294 293 293 293 293 293 292 292 292 291 290 290 290 290 289 289
255 257 258 259 260 261 262 263 264 265 266 266 267 268 269 270 271 272 273 274 275 275 276 277 278 278 279 279 279 279 279 279 279 278 278 277 276 276 277 278 280 280 281 282 282 283 284 285 285 285 286 286 286 287 289 290 291 292 293 293 294 295 296 297 297 297 297 297 296 295 294 293 293 293 293 292 292 292 291 290 289 288 288 288 287 287 287
256 258 259 260 262 263 265 266 267 268 269 269 269 270 271 272 273 274 275 276 276 277 278 278 278 279 279 279 279 279 279 279 279 278 277 277 276 275 275 276 276 277 278 279 280 281 282 282 283 283 284 285 287 289 291 292 292 293 294 295 296 297 297 297 297 297 297 297 296 295 294 293 293 293 293 293 292 291 290 289 288 287 287 286 286 285 285
258 259 261 263 264 266 267 268 269 270 270 270 271 272 273 274 275 276 277 278 279 279 280 280 280 279 280 280 280 280 279 279 278 277 276 276 275 274 273 273 273 274 274 275 276 277 278 279 281 282 284 286 288 290 291 292 293 294 294 295 296 296 296 296 296 296 295 295 294 294 293 293 294 294 295 294 293 292 290 288 288 287 287 287 286 286 285
259 260 262 264 265 267 268 269 270 270 271 272 274 275 276 277 278 279 280 280 281 282 283 283 283 283 284 284 283 282 280 279 277 276 274 273 272 271 271 271 271 271 272 273 274 276 277 279 281 283 286 287 289 291 291 292 292 293 293 294 294 294 294 294 294 294 294 294 293 293 293 293 294 295 295 295 293 292 291 290 290 290 289 290 289 288 288
260 261 263 264 266 267 268 270 271 272 273 274 276 277 278 279 280 281 281 282 283 284 285 286 287 288 288 288 287 285 283 280 277 274 272 271 270 270 269 269 270 271 272 273 274 276 278 281 283 285 287 289 289 290 289 289 290 291 291 292 292 292 292 292 292 293 294 294 293 292 292 293 294 295 295 295 294 293 293 292 292 291 291 291 290 289 288
261 262 264 265 267 268 269 270 272 273 274 275 276 278 279 280 281 282 283 284 285 287 288 289 290 290 290 290 288 286 283 279 276 273 271 270 270 269 270 270 271 272 273 275 277 279 282 284 286 288 288 288 287 287 287 288 289 290 291 291 291 291 291 291 292 293 294 293 293 293 293 293 294 294 294 294 294 293 293 293 293 292 293 292 291 289 287
262 264 265 266 267 268 269 271 272 273 274 275 276 278 279 281 282 284 285 286 288 289 290 291 291 291 290 288 285 282 279 277 276 274 273 272 272 273 273 275 276 277 278 280 282 284 286 287 287 286 286 286 286 287 288 289 289 290 291 291 291 291 291 291 291 292 291 290 289 289 290 292 293 293 293 292 291 289 289 289 290 291 291 292 291 290 289
263 264 265 266 267 269 270 271 272 273 274 275 277 278 280 281 283 284 286 287 288 289 290 290 290 290 290 288 285 283 281 281 281 280 280 280 280 280 281 282 283 283 284 285 286 286 287 287 286 286 286 287 288 288 289 290 290 291 291 291 292 292 292 292 292 291 290 288 286 285 286 288 290 291 292 292 291 290 288 288 288 289 289 290 290 289 288
263 264 266 267 268 269 270 271 272 273 274 276 277 279 280 281 283 284 285 286 286 287 287 287 287 287 287 287 288 287 287 287 287 287 286 286 286 286 286 286 286 286 286 287 287 287 287 287 287 287 287 288 289 290 291 292 292 293 293 293 293 294 294 294 294 293 292 290 288 287 286 287 288 290 292 293 293 292 291 290 289 289 289 288 288 288 287
264 265 266 267 268 269 270 272 273 274 275 277 278 279 280 281 282 283 283 284 284 284 284 283 281 281 281 281 281 282 282 282 283 283 284 285 285 285 285 285 285 285 285 285 286 286 287 287 288 288 289 290 291 291 292 292 292 293 293 293 293 293 293 293 294 294 294 292 291 289 288 288 288 289 290 291 291 291 290 289 289 288 288 287 287 287 286
264 265 266 267 269 270 271 272 274 275 276 276 277 278 279 280 280 280 279 279 279 279 279 279 278 278 278 279 279 278 278 278 278 278 279 280 281 281 282 282 283 283 284 285 286 287 288 289 290 291 292 292 292 292 292 291 291 291 291 290 290 289 289 290 290 291 292 292 292 291 290 289 289 288 288 288 287 287 287 287 286 286 285 285 285 285 284
Height
10848 10857 10864 10864 10865 10869 10872 10873 10872 10872 10873 10875 10878 10884 10887 10883 10882 10888 10890 10890 10896 10902 10904 10905 10905 10905 10905 10907 10911 10913 10912 10912 10911 10908 10908 10907 10903 10901 10902 10905 10906 10906 10905 10905 10905 10904 10904 10903 10903 10902 10900 10897 10895 10892 10888 10885 10883 10881 10880 10879 10877 10876 10875 10872 10868 10865 10863 10855 10848 10846 10843 10838 10834 10832 10830 10828 10824 10820 10816 10812 10809 10804 10800 10797 10793 10789 10784
10838 10846 10854 10856 10857 10861 10866 10866 10864 10863 10865 10868 10871 10876 10878 10875 10874 10879 10879 10881 10891 10897 10898 10898 10897 10896 10898 10902 10905 10906 10905 10905 10903 10900 10899 10898 10897 10898 10898 10899 10899 10898 10898 10898 10898 10898 10897 10896 10895 10894 10893 10891 10890 10887 10883 10880 10877 10874 10873 10871 10870 10869 10865 10861 10857 10857 10855 10845 10835 10835 10834 10829 10827 10825 10823 10820 10816 10812 10808 10804 10801 10797 10793 10790 10786 10782 10777
10829 10836 10843 10847 10849 10854 10857 10858 10858 10858 10860 10863 10864 10866 10869 10867 10868 10871 10870 10874 10885 10891 10890 10888 10886 10888 10892 10896 10899 10899 10899 10899 10897 10893 10890 10888 10888 10892 10894 10894 10894 10893 10892 10892 10892 10892 10892 10891 10889 10887 10885 10883 10882 10880 10878 10875 10871 10868 10866 10864 10863 10859 10854 10851 10849 10849 10848 10837 10826 10825 10825 10822 10820 10818 10815 10812 10808 10804 10800 10796 10792 10788 10785 10782 10779 10774 10768
10822 10828 10834 10839 10844 10847 10847 10849 10854 10854 10852 10853 10854 10855 10857 10859 10864 10867 10866 10870 10880 10881 10878 10878 10879 10882 10887 10890 10892 10892 10892 10893 10890 10887 10884 10880 10879 10882 10885 10887 10887 10887 10887 10887 10886 10885 10885 10885 10884 10882 10879 10877 10875 10873 10872 10869 10865 10861 10859 10859 10857 10851 10846 10847 10846 10843 10839 10828 10820 10819 10817 10814 10812 10810 10807 10805 10801 10796 10792 10787 10784 10780 10777 10775 10772 10767 10760
10816 10821 10826 10833 10838 10838 10836 10841 10848 10846 10842 10842 10845 10847 10848 10852 10860 10864 10862 10868 10874 10870 10866 10870 10874 10876 10879 10882 10884 10885 10885 10885 10882 10879 10877 10874 10872 10873 10875 10877 10878 10878 10879 10879 10879 10878 10878 10877 10876 10875 10873 10871 10870 10869 10867 10863 10859 10857 10855 10853 10851 10845 10841 10842 10842 10837 10829 10819 10814 10812 10809 10806 10804 10802 10801 10799 10794 10789 10784 10780 10777 10773 10770 10768 10764 10759 10753
10809 10814 10819 10824 10828 10828 10828 10834 10839 10836 10834 10836 10837 10839 10841 10846 10854 10857 10857 10862 10865 10861 10859 10863 10865 10867 10870 10873 10875 10877 10877 10876 10874 10870 10868 10866 10866 10866 10868 10869 10868 10869 10870 10871 10871 10871 10870 10869 10868 10867 10866 10865 10864 10863 10861 10859 10856 10854 10851 10848 10845 10841 10838 10836 10832 10827 10819 10811 10806 10804 10801 10799 10798 10796 10795 10792 10787 10782 10777 10773 10770 10767 10763 10761 10757 10752 10747
10801 10807 10811 10814 10817 10821 10823 10826 10829 10828 10828 10831 10829 10828 10832 10839 10845 10848 10851 10854 10854 10852 10853 10855 10857 10859 10862 10865 10867 10868 10869 10868 10866 10863 10860 10859 10859 10860 10861 10861 10860 10861 10862 10863 10864 10864 10862 10861 10860 10858 10857 10857 10856 10856 10854 10853 10852 10850 10846 10843 10841 10839 10836 10831 10824 10818 10812 10804 10797 10795 10794 10794 10793 10791 10788 10784 10779 10775 10770 10766 10763 10760 10757 10755 10751 10747 10742
10794 10800 10804 10804 10809 10815 10816 10817 10818 10818 10821 10824 10823 10820 10821 10827 10834 10839 10842 10845 10845 10845 10845 10847 10850 10852 10854 10856 10858 10860 10861 10859 10857 10856 10854 10854 10854 10853 10852 10852 10852 10854 10856 10856 10856 10856 10855 10853 10851 10849 10848 10847 10847 10847 10847 10846 10844 10842 10839 10838 10837 10836 10833 10829 10822 10815 10809 10800 10790 10787 10788 10788 10786 10784 10780 10775 10772 10768 10764 10760 10756 10752 10750 10747 10744 10741 10736
10787 10794 10796 10798 10803 10807 10807 10808 10809 10810 10813 10817 10818 10816 10814 10817 10822 10828 10832 10835 10837 10837 10837 10839 10842 10844 10845 10846 10847 10850 10851 10849 10848 10847 10847 10848 10848 10845 10843 10845 10847 10847 10847 10846 10846 10846 10845 10843 10842 10840 10839 10838 10838 10838 10839 10838 10833 10831 10831 10832 10833 10833 10831 10827 10820 10811 10801 10794 10787 10784 10783 10781 10778 10775 10771 10767 10764 10761 10757 10753 10748 10744 10741 10738 10736 10732 10728
10781 10788 10790 10792 10797 10799 10799 10800 10801 10803 10806 10808 10809 10808 10806 10807 10812 10818 10823 10826 10827 10829 10831 10832 10834 10835 10836 10836 10836 10838 10840 10839 10839 10838 10838 10839 10839 10837 10837 10839 10841 10840 10838 10837 10836 10836 10835 10834 10832 10832 10830 10829 10829 10829 10831 10829 10825 10823 10824 10824 10825 10826 10824 10820 10815 10805 10794 10787 10783 10780 10778 10775 10770 10766 10763 10760 10756 10753 10749 10745 10740 10736 10732 10729 10727 10724 10718
10776 10781 10783 10785 10787 10788 10790 10791 10792 10794 10796 10799 10802 10800 10794 10797 10804 10810 10815 10818 10819 10821 10822 10823 10825 10826 10825 10825 10826 10827 10828 10829 10829 10828 10827 10828 10829 10830 10832 10832 10832 10831 10830 10828 10828 10827 10826 10825 10824 10824 10822 10821 10821 10821 10821 10820 10817 10817 10819 10817 10816 10817 10816 10812 10808 10799 10788 10781 10776 10774 10772 10767 10762 10758 10757 10754 10749 10744 10740 10736 10732 10728 10724 10720 10718 10714 10708
10766 10770 10772 10775 10777 10779 10782 10783 10783 10786 10788 10792 10796 10791 10785 10791 10798 10799 10802 10808 10812 10815 10815 10814 10815 10815 10814 10814 10817 10818 10818 10819 10819 10818 10818 10818 10819 10821 10823 10822 10822 10822 10821 10819 10818 10818 10818 10817 10816 10816 10814 10812 10812 10812 10811 10810 10807 10808 10809 10808 10807 10807 10807 10805 10800 10791 10782 10774 10770 10767 10765 10759 10753 10752 10751 10747 10741 10736 10732 10727 10723 10719 10715 10710 10707 10704 10699
10757 10759 10760 10765 10769 10772 10777 10778 10777 10779 10782 10784 10785 10781 10780 10787 10791 10790 10792 10797 10801 10806 10807 10805 10804 10804 10804 10806 10808 10808 10808 10808 10810 10809 10809 10811 10811 10811 10811 10812 10813 10813 10812 10810 10809 10809 10809 10808 10808 10808 10807 10805 10804 10803 10801 10799 10797 10797 10798 10796 10795 10796 10797 10794 10789 10782 10775 10767 10763 10761 10757 10750 10745 10745 10742 10737 10732 10728 10724 10720 10714 10710 10706 10702 10697 10693 10689
10749 10751 10753 10758 10762 10767 10773 10775 10773 10774 10774 10772 10771 10772 10776 10781 10782 10782 10785 10786 10788 10793 10795 10795 10796 10796 10796 10797 10798 10799 10799 10799 10800 10801 10800 10801 10801 10801 10800 10801 10803 10805 10804 10803 10801 10800 10798 10798 10798 10798 10798 10797 10796 10794 10792 10789 10787 10788 10788 10784 10783 10785 10786 10781 10776 10771 10765 10759 10756 10754 10748 10741 10738 10737 10733 10728 10724 10720 10717 10712 10707 10702 10698 10694 10689 10683 10679
10742 10745 10748 10752 10756 10762 10769 10770 10766 10766 10764 10761 10762 10766 10769 10773 10774 10776 10777 10776 10777 10780 10782 10784 10787 10787 10788 10790 10790 10790 10790 10790 10790 10790 10790 10790 10791 10791 10791 10792 10793 10795 10795 10794 10793 10792 10790 10788 10787 10786 10787 10788 10786 10784 10782 10779 10778 10778 10777 10774 10772 10774 10775 10772 10764 10758 10754 10750 10748 10744 10737 10732 10730 10727 10723 10720 10717 10713 10710 10705 10701 10696 10691 10687 10682 10676 10671
10736 10739 10742 10745 10749 10755 10760 10759 10757 10757 10756 10754 10756 10759 10759 10762 10766 10768 10770 10770 10768 10768 10770 10774 10777 10778 10779 10781 10782 10782 10782 10780 10779 10780 10780 10781 10782 10781 10781 10781 10782 10784 10784 10784 10783 10782 10781 10779 10778 10777 10778 10778 10777 10775 10772 10770 10770 10769 10767 10764 10761 10762 10766 10764 10754 10745 10742 10741 10738 10733 10728 10724 10721 10716 10713 10712 10710 10706 10702 10698 10694 10689 10684 10679 10675 10669 10664
10728 10731 10734 10738 10741 10746 10749 10748 10747 10749 10749 10747 10748 10749 10750 10753 10756 10758 10761 10762 10761 10760 10760 10763 10767 10768 10769 10770 10773 10774 10772 10771 10771 10772 10773 10773 10773 10772 10771 10772 10772 10773 10773 10773 10773 10772 10771 10770 10770 10770 10771 10771 10771 10769 10766 10763 10761 10760 10759 10755 10750 10749 10753 10752 10743 10736 10732 10728 10725 10723 10720 10716 10712 10707 10704 10704 10702 10698 10694 10690 10686 10682 10677 10671 10666 10660 10655
10719 10722 10726 10731 10735 10739 10740 10739 10737 10738 10740 10741 10742 10741 10741 10743 10745 10748 10752 10754 10754 10753 10752 10753 10755 10759 10759 10760 10764 10765 10764 10763 10764 10765 10764 10763 10763 10762 10762 10763 10763 10764 10764 10764 10763 10762 10762 10762 10762 10762 10764 10765 10764 10761 10759 10757 10753 10749 10748 10746 10741 10740 10742 10738 10731 10726 10722 10717 10715 10714 10711 10707 10702 10697 10695 10696 10695 10691 10687 10683 10678 10673 10667 10661 10655 10650 10644
10710 10714 10718 10724 10729 10732 10734 10733 10731 10729 10730 10734 10736 10735 10735 10735 10736 10739 10744 10747 10747 10745 10745 10745 10745 10748 10749 10751 10754 10756 10756 10755 10755 10755 10754 10753 10753 10753 10752 10752 10753 10754 10755 10754 10754 10753 10754 10754 10755 10755 10756 10756 10754 10752 10751 10751 10748 10744 10742 10741 10737 10734 10732 10727 10722 10718 10714 10709 10705 10703 10701 10697 10691 10685 10683 10684 10684 10681 10677 10673 10667 10661 10655 10649 10643 10638 10633
10703 10706 10710 10716 10721 10724 10726 10727 10726 10723 10722 10724 10726 10727 10727 10728 10729 10731 10735 10739 10740 10738 10738 10738 10738 10739 10742 10743 10745 10746 10747 10746 10746 10745 10745 10745 10744 10743 10742 10742 10742 10742 10743 10744 10744 10745 10746 10747 10747 10747 10748 10747 10746 10743 10743 10744 10743 10739 10737 10735 10731 10726 10721 10717 10715 10712 10707 10700 10695 10691 10689 10686 10679 10674 10671 10670 10668 10666 10663 10658 10653 10648 10642 10637 10632 10627 10623
10695 10699 10704 10708 10711 10714 10716 10718 10718 10716 10715 10714 10716 10718 10719 10720 10722 10723 10726 10729 10731 10732 10732 10731 10731 10733 10736 10737 10737 10738 10738 10737 10737 10737 10737 10737 10735 10734 10733 10732 10732 10732 10732 10732 10733 10735 10736 10737 10738 10738 10739 10739 10738 10736 10735 10734 10733 10730 10727 10723 10718 10714 10710 10707 10705 10701 10696 10691 10686 10682 10678 10673 10667 10663 10659 10656 10654 10651 10648 10645 10641 10637 10632 10627 10623 10619 10615
10689 10692 10695 10698 10699 10701 10703 10706 10707 10708 10706 10706 10708 10709 10710 10712 10714 10716 10717 10719 10722 10724 10725 10726 10727 10729 10731 10731 10731 10730 10730 10729 10728 10728 10727 10727 10726 10726 10725 10724 10723 10723 10722 10722 10723 10724 10725 10727 10728 10729 10730 10731 10730 10730 10728 10724 10722 10721 10718 10712 10707 10703 10701 10698 10693 10687 10683 10681 10678 10674 10668 10662 10657 10654 10650 10647 10644 10640 10637 10634 10631 10627 10622 10618 10614 10611 10606
10683 10684 10685 10687 10688 10689 10692 10696 10698 10699 10699 10699 10700 10701 10702 10704 10707 10709 10710 10711 10713 10716 10717 10718 10721 10723 10723 10723 10722 10722 10721 10721 10720 10718 10717 10717 10717 10717 10717 10715 10715 10714 10714 10714 10714 10714 10714 10715 10717 10718 10720 10721 10722 10722 10720 10715 10712 10712 10710 10705 10701 10696 10691 10687 10681 10675 10672 10669 10667 10663 10658 10653 10650 10646 10642 10638 10635 10632 10629 10625 10621 10617 10613 10609 10606 10602 10598
10676 10676 10676 10678 10680 10683 10686 10688 10689 10689 10690 10691 10692 10693 10695 10698 10700 10700 10700 10701 10704 10706 10706 10708 10711 10713 10713 10713 10712 10712 10712 10712 10712 10712 10711 10710 10709 10708 10707 10706 10705 10705 10705 10705 10704 10703 10703 10704 10705 10707 10709 10711 10712 10712 10709 10705 10704 10704 10702 10698 10694 10689 10682 10676 10671 10667 10664 10660 10657 10653 10649 10646 10642 10639 10634 10630 10626 10623 10620 10616 10612 10608 10605 10601 10597 10593 10589
10668 10666 10665 10669 10674 10675 10677 10678 10678 10679 10681 10684 10685 10687 10689 10690 10690 10689 10689 10692 10695 10697 10698 10699 10702 10704 10704 10703 10703 10703 10703 10703 10704 10704 10704 10702 10700 10700 10699 10698 10697 10696 10696 10695 10694 10693 10693 10692 10693 10695 10697 10698 10700 10701 10699 10696 10696 10695 10692 10687 10682 10678 10672 10667 10663 10660 10657 10654 10649 10645 10642 10638 10635 10630 10626 10622 10618 10614 10610 10607 10603 10600 10596 10592 10588 10583 10579
10657 10655 10655 10660 10664 10665 10665 10667 10668 10670 10674 10677 10679 10681 10682 10682 10682 10681 10681 10684 10687 10690 10692 10692 10694 10694 10695 10695 10694 10693 10693 10693 10694 10694 10693 10692 10691 10691 10691 10690 10689 10688 10687 10686 10685 10683 10682 10682 10682 10683 10683 10684 10685 10687 10686 10684 10684 10684 10682 10677 10671 10666 10662 10659 10655 10652 10650 10646 10642 10638 10635 10631 10627 10623 10619 10614 10610 10606 10602 10598 10595 10591 10588 10584 10579 10574 10571
10648 10647 10648 10652 10655 10655 10655 10657 10659 10663 10667 10670 10673 10674 10674 10674 10675 10675 10676 10677 10680 10682 10683 10684 10685 10685 10685 10684 10684 10683 10683 10683 10684 10685 10685 10684 10682 10682 10683 10682 10681 10680 10678 10677 10675 10673 10671 10670 10670 10670 10670 10670 10669 10670 10669 10668 10668 10669 10668 10664 10660 10657 10654 10650 10647 10644 10641 10637 10633 10629 10626 10622 10619 10615 10610 10606 10602 10598 10594 10590 10586 10582 10578 10573 10568 10564 10561
10643 10643 10643 10644 10645 10645 10645 10647 10651 10656 10661 10664 10666 10667 10667 10667 10668 10668 10669 10671 10672 10673 10673 10674 10675 10675 10674 10673 10674 10674 10674 10674 10675 10676 10676 10675 10674 10674 10675 10675 10674 10671 10669 10667 10665 10663 10661 10659 10658 10657 10657 10656 10655 10654 10653 10652 10652 10652 10651 10649 10647 10645 10643 10641 10638 10635 10631 10627 10622 10618 10614 10611 10609 10606 10602 10597 10593 10588 10584 10580 10576 10571 10565 10560 10556 10553 10550
10634 10633 10633 10632 10633 10634 10637 10641 10646 10651 10655 10657 10658 10658 10659 10660 10661 10661 10662 10663 10663 10663 10663 10663 10664 10664 10665 10665 10665 10666 10666 10666 10666 10666 10666 10665 10664 10664 10665 10666 10664 10662 10660 10658 10655 10653 10651 10649 10647 10646 10645 10644 10643 10641 10640 10639 10638 10638 10637 10635 10634 10632 10631 10630 10628 10624 10619 10615 10610 10606 10602 10600 10598 10596 10592 10587 10583 10578 10573 10568 10563 10558 10552 10546 10543 10541 10539
10620 10619 10618 10620 10623 10627 10632 10637 10641 10645 10647 10649 10650 10650 10651 10653 10654 10654 10653 10654 10654 10654 10654 10654 10655 10656 10656 10656 10657 10658 10659 10658 10657 10657 10657 10656 10654 10653 10654 10655 10654 10652 10650 10649 10645 10641 10639 10637 10636 10635 10633 10631 10631 10630 10629 10627 10626 10624 10624 10623 10621 10619 10617 10615 10613 10610 10607 10602 10598 10594 10589 10586 10585 10582 10578 10574 10571 10566 10562 10556 10551 10546 10539 10533 10531 10530 10527
10606 10606 10609 10614 10619 10624 10628 10632 10635 10637 10639 10641 10642 10643 10645 10647 10647 10647 10646 10646 10646 10646 10646 10647 10647 10648 10647 10647 10647 10649 10650 10651 10650 10648 10647 10647 10646 10644 10643 10643 10642 10639 10638 10637 10634 10630 10628 10626 10625 10622 10620 10618 10619 10619 10618 10615 10612 10611 10610 10609 10607 10604 10602 10600 10598 10596 10593 10589 10585 10580 10574 10571 10569 10566 10562 10559 10557 10553 10549 10544 10538 10532 10525 10520 10518 10517 10516
10601 10604 10608 10612 10617 10620 10622 10625 10627 10629 10631 10633 10634 10635 10637 10639 10640 10640 10640 10639 10639 10639 10639 10639 10639 10639 10639 10638 10638 10638 10640 10641 10640 10639 10637 10637 10637 10636 10634 10632 10630 10627 10626 10624 10622 10620 10618 10616 10614 10610 10608 10607 10608 10608 10605 10601 10599 10598 10597 10595 10593 10590 10588 10586 10584 10582 10578 10575 10571 10566 10560 10555 10552 10549 10546 10544 10541 10538 10534 10529 10525 10519 10512 10507 10505 10504 10503
10600 10602 10605 10607 10609 10611 10614 10616 10618 10621 10623 10624 10625 10625 10627 10629 10631 10632 10632 10632 10632 10631 10631 10630 10630 10630 10631 10630 10628 10628 10629 10630 10630 10629 10627 10627 10627 10627 10624 10622 10619 10617 10614 10613 10611 10609 10607 10604 10601 10598 10597 10598 10598 10596 10593 10589 10587 10586 10585 10583 10581 10578 10576 10573 10571 10568 10564 10560 10556 10551 10545 10541 10537 10534 10530 10527 10525 10522 10518 10515 10511 10505 10498 10494 10492 10491 10490
10594 10596 10599 10601 10603 10605 10607 10609 10611 10613 10614 10615 10616 10616 10617 10619 10621 10623 10623 10623 10622 10621 10621 10621 10621 10621 10622 10622 10621 10619 10619 10619 10620 10619 10617 10616 10616 10616 10614 10611 10609 10606 10604 10602 10599 10596 10594 10591 10589 10587 10588 10588 10586 10584 10582 10578 10576 10574 10573 10571 10569 10566 10563 10560 10556 10551 10547 10544 10540 10536 10531 10527 10524 10520 10515 10511 10509 10506 10503 10501 10497 10492 10486 10482 10480 10478 10477
10590 10592 10595 10597 10598 10599 10601 10602 10603 10605 10606 10606 10607 10608 10609 10610 10611 10612 10612 10612 10612 10612 10612 10612 10612 10612 10613 10614 10613 10611 10610 10609 10609 10608 10606 10605 10604 10603 10602 10600 10597 10594 10591 10588 10585 10582 10581 10580 10578 10578 10579 10578 10574 10572 10570 10567 10564 10562 10561 10559 10556 10554 10550 10545 10541 10536 10532 10528 10524 10521 10517 10513 10509 10504 10500 10497 10495 10492 10489 10486 10483 10478 10473 10470 10469 10467 10465
10586 10587 10588 10590 10591 10592 10593 10594 10595 10597 10598 10599 10599 10600 10601 10602 10602 10602 10602 10601 10602 10602 10603 10603 10603 10604 10604 10604 10604 10602 10600 10599 10598 10596 10595 10593 10592 10592 10591 10588 10584 10580 10577 10574 10570 10569 10570 10570 10569 10568 10567 10565 10563 10560 10557 10555 10553 10551 10548 10545 10542 10539 10535 10531 10526 10523 10520 10516 10512 10507 10503 10498 10493 10488 10485 10483 10480 10477 10475 10474 10471 10466 10462 10460 10458 10457 10455
10580 10581 10582 10583 10584 10584 10585 10587 10588 10589 10590 10591 10592 10593 10593 10593 10593 10593 10593 10593 10593 10594 10594 10593 10594 10594 10594 10594 10594 10592 10590 10589 10588 10586 10585 10583 10582 10582 10579 10574 10570 10566 10562 10559 10559 10559 10559 10560 10560 10558 10556 10553 10550 10548 10546 10544 10542 10539 10535 10531 10527 10523 10519 10516 10511 10508 10505 10503 10499 10494 10490 10486 10481 10476 10472 10469 10466 10464 10462 10461 10459 10455 10452 10450 10448 10446 10444
10574 10575 10576 10577 10577 10578 10579 10580 10581 10582 10582 10583 10583 10584 10584 10584 10584 10584 10584 10584 10585 10584 10584 10583 10584 10585 10585 10585 10583 10582 10580 10579 10578 10576 10575 10574 10572 10570 10567 10562 10557 10552 10546 10544 10545 10548 10548 10547 10548 10547 10545 10542 10539 10537 10535 10533 10530 10525 10522 10518 10514 10509 10505 10501 10497 10493 10490 10487 10484 10480 10477 10473 10470 10465 10461 10458 10455 10453 10451 10450 10448 10445 10442 10440 10438 10436 10434
10568 10569 10570 10570 10571 10572 10573 10574 10574 10575 10575 10576 10576 10576 10576 10575 10575 10575 10575 10575 10575 10575 10574 10574 10575 10576 10576 10575 10573 10571 10570 10569 10567 10566 10565 10563 10560 10557 10554 10550 10546 10540 10535 10532 10533 10535 10536 10536 10535 10534 10533 10531 10528 10525 10521 10519 10516 10513 10509 10506 10502 10498 10493 10488 10484 10480 10476 10473 10470 10467 10464 10460 10457 10454 10451 10448 10446 10443 10441 10439 10438 10436 10433 10431 10429 10426 10425
10560 10561 10562 10563 10564 10565 10565 10565 10565 10567 10568 10568 10568 10567 10567 10567 10566 10566 10566 10565 10565 10565 10566 10565 10565 10566 10566 10565 10562 10560 10558 10556 10555 10555 10555 10553 10548 10541 10536 10533 10531 10529 10526 10525 10524 10523 10524 10524 10523 10522 10521 10518 10515 10511 10508 10505 10502 10500 10497 10494 10490 10485 10481 10476 10471 10467 10464 10461 10458 10455 10452 10449 10446 10443 10441 10439 10437 10435 10433 10431 10429 10427 10425 10422 10420 10418 10417
10552 10553 10554 10555 10556 10556 10556 10556 10556 10557 10558 10558 10558 10558 10558 10558 10558 10557 10556 10555 10555 10555 10556 10555 10555 10555 10554 10553 10551 10548 10546 10544 10543 10543 10543 10543 10538 10528 10519 10516 10516 10515 10514 10513 10512 10510 10510 10509 10509 10508 10506 10503 10500 10496 10494 10491 10489 10486 10483 10479 10475 10471 10467 10463 10458 10454 10451 10449 10446 10444 10441 10439 10436 10434 10432 10430 10428 10427 10425 10423 10421 10419 10417 10415 10413 10411 10409
10544 10545 10546 10547 10547 10548 10548 10548 10548 10548 10548 10548 10548 10548 10548 10549 10548 10547 10546 10545 10544 10545 10545 10545 10544 10543 10542 10541 10539 10537 10534 10532 10530 10529 10528 10528 10526 10518 10511 10507 10506 10503 10501 10499 10499 10498 10497 10496 10495 10493 10491 10488 10485 10483 10480 10477 10475 10472 10468 10465 10461 10457 10454 10451 10447 10443 10440 10437 10435 10433 10432 10430 10428 10426 10424 10422 10420 10419 10417 10415 10413 10412 10411 10409 10407 10405 10402
10536 10537 10538 10539 10540 10540 10540 10540 10540 10539 10539 10538 10538 10538 10538 10538 10538 10537 10536 10535 10534 10534 10534 10533 10533 10532 10530 10528 10526 10525 10522 10519 10516 10513 10511 10510 10508 10506 10502 10499 10496 10493 10490 10488 10487 10487 10486 10484 10482 10480 10478 10476 10473 10471 10468 10465 10461 10458 10455 10453 10449 10446 10443 10440 10438 10435 10432 10428 10425 10423 10421 10421 10420 10418 10417 10415 10413 10411 10409 10406 10405 10404 10404 10403 10402 10399 10398
10530 10530 10530 10531 10532 10532 10532 10532 10531 10530 10529 10528 10528 10528 10528 10527 10527 10526 10525 10524 10522 10521 10521 10520 10519 10518 10517 10514 10512 10510 10508 10504 10500 10498 10496 10493 10492 10490 10488 10486 10484 10482 10480 10478 10477 10476 10475 10473 10471 10469 10468 10465 10462 10460 10457 10453 10449 10446 10444 10442 10439 10437 10434 10432 10429 10427 10425 10422 10418 10414 10411 10411 10411 10411 10410 10408 10405 10403 10401 10399 10397 10396 10397 10397 10396 10394 10392
10523 10523 10523 10524 10524 10524 10524 10524 10523 10521 10520 10520 10519 10518 10517 10516 10515 10514 10513 10512 10511 10509 10506 10505 10504 10503 10501 10498 10496 10493 10491 10488 10485 10483 10481 10479 10477 10475 10474 10473 10472 10471 10469 10468 10466 10465 10465 10463 10462 10461 10459 10456 10453 10450 10447 10443 10440 10437 10435 10433 10431 10429 10427 10424 10422 10420 10418 10415 10411 10407 10404 10403 10403 10404 10404 10402 10399 10396 10394 10392 10390 10390 10390 10390 10389 10388 10386
10516 10516 10517 10517 10517 10517 10516 10515 10514 10513 10512 10511 10510 10508 10506 10505 10504 10503 10502 10501 10499 10497 10494 10491 10490 10488 10485 10482 10479 10477 10474 10473 10471 10470 10468 10467 10465 10464 10463 10462 10462 10460 10459 10458 10457 10456 10456 10455 10454 10452 10450 10447 10445 10442 10439 10435 10433 10430 10428 10425 10423 10421 10419 10417 10415 10413 10411 10408 10404 10400 10398 10397 10398 10398 10398 10397 10394 10391 10388 10386 10384 10383 10383 10384 10384 10382 10381
10508 10509 10509 10510 10509 10509 10508 10507 10505 10505 10504 10502 10500 10498 10496 10495 10493 10492 10491 10489 10488 10486 10483 10479 10477 10475 10472 10470 10467 10464 10462 10460 10459 10459 10458 10457 10456 10455 10454 10454 10453 10452 10451 10450 10449 10448 10447 10447 10445 10443 10441 10439 10436 10434 10431 10428 10425 10423 10420 10417 10415 10413 10411 10410 10409 10408 10406 10403 10399 10394 10391 10390 10391 10391 10392 10392 10390 10387 10384 10381 10379 10377 10376 10377 10377 10377 10376
10501 10501 10502 10502 10501 10500 10499 10498 10497 10496 10494 10493 10491 10490 10488 10486 10484 10483 10481 10479 10477 10475 10472 10469 10465 10463 10462 10460 10457 10455 10453 10451 10450 10450 10449 10448 10448 10447 10447 10446 10445 10444 10443 10442 10441 10440 10439 10438 10436 10434 10432 10430 10428 10425 10423 10420 10418 10415 10413 10410 10407 10404 10403 10403 10403 10402 10401 10399 10396 10392 10387 10384 10383 10383 10385 10385 10385 10383 10380 10377 10375 10372 10371 10371 10370 10370 10370
10493 10493 10493 10492 10492 10491 10490 10489 10488 10486 10485 10484 10483 10482 10480 10478 10476 10474 10472 10470 10467 10465 10462 10459 10456 10454 10452 10451 10449 10448 10446 10444 10443 10442 10442 10441 10440 10440 10439 10438 10437 10436 10435 10434 10433 10432 10431 10430 10428 10426 10424 10422 10420 10417 10415 10412 10410 10408 10406 10403 10400 10397 10395 10394 10394 10395 10395 10394 10391 10389 10385 10381 10378 10376 10377 10378 10378 10377 10375 10373 10371 10369 10367 10366 10365 10364 10364
10485 10484 10484 10483 10482 10481 10480 10479 10478 10477 10476 10476 10475 10473 10472 10470 10468 10465 10463 10461 10458 10456 10454 10452 10449 10447 10445 10444 10443 10441 10440 10438 10437 10436 10435 10434 10433 10432 10432 10431 10430 10428 10427 10426 10425 10424 10423 10421 10420 10418 10416 10414 10412 10409 10407 10405 10403 10401 10399 10396 10394 10391 10388 10386 10385 10385 10386 10386 10384 10383 10380 10377 10373 10371 10370 10370 10370 10369 10368 10367 10365 10364 10362 10361 10359 10358 10358
10476 10475 10474 10474 10473 10472 10471 10470 10469 10469 10468 10467 10466 10465 10463 10461 10459 10456 10454 10452 10449 10448 10446 10444 10443 10441 10439 10438 10437 10436 10435 10434 10432 10430 10429 10427 10426 10425 10424 10423 10422 10421 10420 10418 10417 10415 10414 10413 10411 10409 10407 10405 10404 10402 10400 10398 10396 10394 10392 10390 10388 10386 10383 10380 10377 10376 10376 10376 10376 10375 10373 10370 10368 10366 10365 10364 10363 10362 10362 10361 10359 10358 10356 10355 10354 10353 10352
10466 10466 10465 10465 10464 10463 10462 10461 10460 10460 10459 10458 10457 10455 10454 10452 10450 10448 10446 10444 10442 10440 10439 10438 10436 10434 10433 10432 10430 10429 10428 10428 10427 10425 10423 10421 10419 10417 10416 10415 10414 10413 10412 10410 10409 10407 10406 10404 10403 10401 10399 10397 10396 10394 10392 10391 10389 10388 10386 10384 10382 10380 10378 10376 10373 10370 10368 10367 10366 10366 10365 10363 10361 10359 10358 10357 10356 10355 10355 10354 10353 10352 10351 10349 10348 10347 10346